Weather in Starosemeykino

Russia / Samara Oblast     53°24′50″N   50°16′27″E
temp.,
°C
wind,
m/s
gust,
m/s
humid.,
%
clouds,
%
prec.,
mm/h
press.,
hPa
HPBL,
m
5 december, sun
sun501:000wsw2696100 0.9 1013296
04:00−1sw2594100 1.2 1014191
07:00−2w3686100 0.0 1014301
10:00−2w2687100 0.0 1016343
13:00−2wnw3477100 0.0 1017443
16:00−2nw1286100 0.0 101854
19:00−3wnw1192100 0.0 101915
22:00−4n11959 0.0 101911
6 december, mon
mon601:00−4nnw129395 0.0 102076
04:00−4nnw24925 0.0 102195
07:00−4n24925 0.0 1022128
10:00−4n238935 0.0 1024169
13:00−2nne127995 0.0 1025361
16:00−4nne118941 0.0 102712
19:00−5ne119476 0.0 102813
22:00−4e1290100 0.0 102989
7 december, tue
tue701:00−4e2387100 0.0 1029193
04:00−4ese138679 0.0 1030177
07:00−5e129470 0.0 103147
10:00−5ese268971 0.0 1032227
13:00−3se357776 0.0 1032327
16:00−4se378345 0.0 1032270
19:00−5se41185100 0.0 1031340
22:00−5sse4127996 0.0 1031370
8 december, wed
wed801:00−6sse51375100 0.0 1030339
04:00−4sse41179100 0.0 1029308
07:00−3sse41192100 0.0 1028336
10:00−1sse51395100 0.0 1028425
13:000sse51389100 0.0 1027461
16:000sse51290100 0.0 1027349
19:00−1sse41194100 0.0 1027298
22:00−1sse41293100 0.0 1027308
9 december, thu
thu901:00−1sse41191100 0.0 1027302
04:00−2se41091100 0.0 1027286
07:00−2se51188100 0.0 1026298
10:00−2se51285100 0.0 1026372
13:000se51281100 0.0 1025446
16:00−1se51184100 0.0 1025376
19:00−1se51284100 0.0 1024377
22:00−1se41184100 0.0 1023366